Home > Weather > Longyearbyen > Past weeks

Flag for Norway Past Weather in Longyearbyen, Svalbard, Norway — Yesterday and Last 2 Weeks

Now
45 °F

Light rain. Partly sunny.


Feels Like: 39 °F
Forecast: 42 / 47 °F
Wind: 12 mph from Northwest

Location: Svalbard Lufthavn

Current Time: Jul 29, 2016 at 11:57:26 PM

Latest Report: Jul 29, 2016 at 10:50 PM


Visibility: N/A

Pressure: 29.95 "Hg

Humidity: 71%

Dew Point: 36 °F

Location of LongyearbyenLocation

Past Weather in Longyearbyen — Graph

°F

Longyearbyen Temperature Yesterday

Maximum temperature yesterday: 48 °F (at 12:50 AM)
Minimum temperature yesterday: 45 °F (at 5:50 AM)
Average temperature yesterday: 46 °F

High & Low Weather Summary for the Past Weeks

 TemperatureHumidityPressure
High54 °F (Jul 17, 7:50 PM)100% (Jul 16, 1:20 AM)30.21 "Hg (Jul 16, 1:20 AM)
Low43 °F (Jul 21, 3:50 AM)51% (Jul 26, 7:50 PM)29.47 "Hg (Jul 19, 10:50 AM)
Average48 °F81%29.90 "Hg
* Reported Jul 14 10:20 PM — Jul 29 10:50 PM, Longyearbyen, Weather by CustomWeather, © 2016

Note: Actual official high and low records may vary slightly from our data, if they occured in-between our weather recording intervals... More about our weather records

Advertising

Longyearbyen Weather History for the Previous 24 Hours

Scroll right to see more
 ConditionsComfort  
Time TempWeatherWind HumidityBarometerVisibility
10:50 PM
Fri, Jul 29
45 °FLight rain. Partly sunny.12 mph71%29.95 "HgN/A
9:50 PM46 °FPartly sunny.13 mph66%29.95 "HgN/A
8:50 PM46 °FScattered clouds.8 mph66%29.95 "HgN/A
7:50 PM46 °FPartly sunny.12 mph71%29.95 "HgN/A
6:50 PM46 °FScattered clouds.7 mph76%29.95 "HgN/A
5:50 PM46 °FPassing clouds.6 mph76%29.95 "HgN/A
4:50 PM46 °FPassing clouds.8 mph71%29.95 "HgN/A
4:20 PM46 °FPassing clouds.7 mph71%29.95 "HgN/A
3:50 PM46 °FPassing clouds.8 mph71%29.95 "HgN/A
2:50 PM46 °FPassing clouds.7 mph71%29.95 "HgN/A
1:50 PM46 °FScattered clouds.7 mph82%29.98 "HgN/A
1:20 PM45 °FScattered clouds.7 mph87%29.98 "HgN/A
12:50 PM45 °FScattered clouds.6 mph87%29.98 "HgN/A
12:20 PM45 °FBroken clouds.7 mph87%29.98 "HgN/A
11:50 AM45 °FBroken clouds.10 mph87%29.98 "HgN/A
11:20 AM45 °FBroken clouds.13 mph87%29.98 "HgN/A
10:50 AM45 °FLight rain. Broken clouds.12 mph81%29.98 "HgN/A
10:20 AM45 °FLight rain. Broken clouds.12 mph87%29.98 "Hg4 mi
9:50 AM45 °FLight rain. Broken clouds.10 mph81%29.98 "HgN/A
9:20 AM43 °FLight rain. Broken clouds.10 mph87%29.98 "HgN/A
8:50 AM43 °FLight rain. Broken clouds.13 mph87%29.98 "HgN/A
8:20 AM43 °FLight rain. Broken clouds.12 mph81%29.98 "HgN/A
7:50 AM43 °FLight rain. Broken clouds.13 mph87%29.98 "HgN/A
6:50 AM45 °FLight rain. Broken clouds.12 mph81%30.01 "HgN/A
5:50 AM45 °FLight rain. Broken clouds.13 mph87%30.01 "HgN/A
4:50 AM45 °FLight rain. Broken clouds.8 mph81%30.04 "HgN/A
3:50 AM45 °FBroken clouds.13 mph81%30.04 "HgN/A
2:50 AM45 °FDrizzle. Broken clouds.10 mph81%30.04 "HgN/A
2:20 AM45 °FDrizzle. Broken clouds.12 mph81%30.07 "HgN/A
1:50 AM45 °FBroken clouds.13 mph81%30.07 "HgN/A
1:20 AM45 °FBroken clouds.13 mph81%30.07 "HgN/A
12:50 AM45 °FBroken clouds.14 mph81%30.07 "HgN/A
12:20 AM45 °FBroken clouds.14 mph81%30.07 "HgN/A
11:50 PM
Thu, Jul 28
45 °FBroken clouds.13 mph81%30.07 "HgN/A
11:20 PM45 °FBroken clouds.14 mph81%30.09 "HgN/A
Weather by CustomWeather, © 2016

See weather overviewHow to use our weather pages